Location: Newark
(54.2500°N, 9.1833°E)
Time: 20:51:59
(UTC+00:00)

A-11 Canister half - Visible Passes

Search period start: 15 December 2019 00:00
Search period end: 25 December 2019 00:00
Orbit: 1526 x 1683 km, 47.3° (Epoch: 14 December)

Date Brightness Start Highest point End Pass type
(mag) Time Alt. Az. Time Alt. Az. Time Alt. Az.
15 Dec 10.5 03:20:19 14° S 03:26:42 27° SE 03:34:40 10° E visible
15 Dec 9.8 05:20:35 10° SW 05:30:12 51° SSE 05:39:50 10° E visible
16 Dec 10.5 03:00:39 19° S 03:05:09 26° SE 03:12:58 10° E visible
16 Dec 9.8 04:59:00 10° SW 05:08:35 50° SSE 05:18:11 10° E visible
17 Dec 10.5 02:40:49 22° SSE 02:43:35 25° SE 02:51:13 10° E visible
17 Dec 9.8 04:39:10 16° SW 04:46:58 49° SSE 04:56:32 10° E visible
17 Dec 9.7 06:41:20 10° WSW 06:51:13 59° S 07:01:02 10° ESE visible
18 Dec 10.5 02:20:51 24° SE 02:22:01 24° SE 02:29:30 10° E visible
18 Dec 9.8 04:19:12 23° SW 04:25:21 48° SSE 04:34:53 10° E visible
18 Dec 9.6 06:19:42 10° WSW 06:29:35 59° S 06:39:24 10° ESE visible
19 Dec 10.5 02:00:48 23° SE 02:00:48 23° SE 02:07:45 10° E visible
19 Dec 9.7 03:59:08 30° SSW 04:03:44 47° SSE 04:13:14 10° E visible
19 Dec 9.6 05:58:03 10° WSW 06:07:57 60° S 06:17:47 10° ESE visible
20 Dec 10.7 01:40:39 21° ESE 01:40:39 21° ESE 01:45:59 10° E visible
20 Dec 9.7 03:38:58 37° SSW 03:42:07 46° SSE 03:51:36 10° E visible
20 Dec 9.5 05:37:18 13° WSW 05:46:18 60° S 05:56:10 10° ESE visible
21 Dec 10.8 01:20:26 18° ESE 01:20:26 18° ESE 01:24:13 10° E visible
21 Dec 9.7 03:18:45 42° S 03:20:30 45° SSE 03:29:55 10° E visible
21 Dec 9.5 05:17:04 19° WSW 05:24:40 59° S 05:34:32 10° ESE visible
22 Dec 11.0 01:00:10 15° E 01:00:10 15° E 01:02:26 10° E visible
22 Dec 9.7 02:58:28 44° SSE 02:58:54 44° SSE 03:08:16 10° E visible
22 Dec 9.5 04:56:47 25° WSW 05:03:02 59° S 05:12:54 10° ESE visible
22 Dec 9.8 06:57:42 10° W 07:07:16 49° SSW 07:16:46 10° SE visible
23 Dec 11.2 00:39:51 12° E 00:39:51 12° E 00:40:37 10° E visible
23 Dec 9.8 02:38:09 42° SE 02:38:09 42° SE 02:46:37 10° E visible
23 Dec 9.4 04:36:27 33° WSW 04:41:23 59° S 04:51:16 10° E visible
23 Dec 9.8 06:36:03 10° W 06:45:39 50° SSW 06:55:12 10° SE visible
24 Dec 10.0 02:17:47 38° SE 02:17:47 38° SE 02:24:57 10° E visible
24 Dec 9.4 04:16:05 41° SW 04:19:45 59° S 04:29:38 10° E visible
24 Dec 9.7 06:14:24 10° W 06:24:02 51° SSW 06:33:37 10° SE visible
